weather.gov     
National Weather Service

Terminal Aerodrome Forecast
NWS Homepage
This page is being discontinued on March 12, 2014.
The same data is available at this site. Please update your bookmarks.
Thank you, and we apologize for the inconvenience.
Please send an email to SR-SRH.Webmaster@noaa.gov with any concerns.


Current Version
Previous Version:    01  02  03  04  05  06  07  08  09  10  11  12  13  14  15  16  17  18  19  20  21  22  23  24  25  
[Printable]
015
FTUS44 KOUN 011726
TAFWWR
TAF
KWWR 011726Z 0118/0218 23012KT P6SM SKC
     FM012100 03011KT P6SM FEW050
     FM020500 07010KT P6SM VCTS SCT040CB PROB30 0205/0209 5SM -TSRA
      BKN040CB
     FM020900 07010KT P6SM VCTS BKN040CB PROB30 0209/0213 4SM -TSRA
      BKN040CB=


015
FTUS44 KOUN 011726
TAFWWR
TAF
KWWR 011726Z 0118/0218 23012KT P6SM SKC
     FM012100 03011KT P6SM FEW050
     FM020500 07010KT P6SM VCTS SCT040CB PROB30 0205/0209 5SM -TSRA
      BKN040CB
     FM020900 07010KT P6SM VCTS BKN040CB PROB30 0209/0213 4SM -TSRA
      BKN040CB=




U.S. Dept. of Commerce
NOAA National Weather Service
1325 East West Highway
Silver Spring, MD 20910
E-mail: w-nws.webmaster@noaa.gov
Page last modified: May 16, 2007
NATIONAL WEATHER SERVICE: for Safety, for Work, for Fun - FOR LIFE